Location: Greenwich
(51.4790°N, 0.0090°E)
Time: 14:38:42
(UTC+01:00)

Altair - Pass Details

Date: 21 June 2025
Orbit: 1502 x 1682 km, 47.2° (Epoch: 19 July)

Event Time Altitude Azimuth Distance (km) Brightness Sun altitude
Rises 03:48:05 0° 276° (W) 4,686 9.7 -6.7°
Reaches altitude 10° 03:51:08 10° 274° (W) 3,721 9.2 -6.4°
Maximum altitude 04:00:21 61° 197° (SSW) 1,757 7.6 -5.5°
Drops below altitude 10° 04:09:55 10° 120° (ESE) 3,855 9.8 -4.5°
Sets 04:13:08 0° 117° (ESE) 4,863 10.3 -4.1°
